When you browse on this site, cookies collect data to enhance your experience and personalize the content and advertising you see.
Visit our Privacy Policy to learn more. By continuing to use the site, you agree to this use of cookies and data.
  • In Spain
  • List of Countries
  • For 7 days
  • Water Temperature
  • Satellite Maps
  • Weather Map
  • Weather Widgets
  • user-avatar
    Login

    Hourly Weather Innsbruck

    Today, 19 February, Tuesday

    Time Temperature Precipitation Wind Pressure Humidity
    00:00 -6°C° 0 mm 2 mps 594 mmHg 55%
    01:00 -5°C° 0 mm 2 mps 595 mmHg 53%
    02:00 -6°C° 0 mm 2 mps 594 mmHg 53%
    03:00 -6°C° 0 mm 2 mps 594 mmHg 53%
    04:00 -6°C° 0 mm 2 mps 594 mmHg 53%
    05:00 -7°C° 0 mm 2 mps 594 mmHg 53%
    06:00 -6°C° 0 mm 1 mps 594 mmHg 54%
    07:00 -7°C° 0 mm 1 mps 594 mmHg 55%
    08:00 -4°C° 0 mm 1 mps 595 mmHg 62%
    09:00 -2°C° 0 mm 1 mps 595 mmHg 69%
    10:00 0°C° 0 mm 1 mps 596 mmHg 76%
    11:00 0°C° 0 mm 1 mps 596 mmHg 80%
    12:00 +1°C° 0 mm 1 mps 596 mmHg 83%
    13:00 +1°C° 0 mm 1 mps 596 mmHg 87%
    14:00 +1°C° 0 mm 1 mps 596 mmHg 88%
    15:00 +1°C° 0 mm 1 mps 596 mmHg 89%
    16:00 +1°C° 0 mm 1 mps 596 mmHg 90%
    17:00 -1°C° 0 mm 1 mps 595 mmHg 90%
    18:00 -3°C° 0 mm 1 mps 595 mmHg 89%
    19:00 -4°C° 0 mm 1 mps 594 mmHg 89%
    20:00 -6°C° 0 mm 1 mps 594 mmHg 87%
    21:00 -6°C° 0 mm 1 mps 595 mmHg 86%
    22:00 -6°C° 0 mm 1 mps 595 mmHg 84%
    23:00 -6°C° 0 mm 1 mps 595 mmHg 81%

    Tomorrow, 20 February, Wednesday

    Time Temperature Precipitation Wind Pressure Humidity
    00:00 -7°C° 0 mm 1 mps 595 mmHg 79%
    01:00 -7°C° 0 mm 1 mps 595 mmHg 76%
    02:00 -7°C° 0 mm 1 mps 595 mmHg 75%
    03:00 -7°C° 0 mm 1 mps 595 mmHg 75%
    04:00 -7°C° 0 mm 1 mps 595 mmHg 74%
    05:00 -7°C° 0 mm 1 mps 595 mmHg 74%
    06:00 -7°C° 0 mm 1 mps 595 mmHg 75%
    07:00 -7°C° 0 mm 1 mps 595 mmHg 75%
    08:00 -4°C° 0 mm 1 mps 596 mmHg 77%
    09:00 -2°C° 0 mm 1 mps 597 mmHg 80%
    10:00 0°C° 0 mm 1 mps 598 mmHg 82%
    11:00 0°C° 0 mm 1 mps 598 mmHg 84%
    12:00 +1°C° 0 mm 1 mps 598 mmHg 85%
    13:00 +1°C° 0 mm 1 mps 598 mmHg 87%
    14:00 +1°C° 0 mm 1 mps 598 mmHg 88%
    15:00 +1°C° 0 mm 1 mps 598 mmHg 89%
    16:00 +1°C° 0 mm 1 mps 598 mmHg 91%
    17:00 -1°C° 0 mm 1 mps 598 mmHg 91%
    18:00 -2°C° 0 mm 1 mps 597 mmHg 92%
    19:00 -3°C° 0 mm 1 mps 597 mmHg 93%
    20:00 -3°C° 0 mm 1 mps 597 mmHg 92%
    21:00 -4°C° 0 mm 1 mps 598 mmHg 91%
    22:00 -4°C° 0 mm 1 mps 598 mmHg 90%
    23:00 -4°C° 0 mm 1 mps 598 mmHg 88%

    Day after tomorrow, 21 February, Thursday

    Time Temperature Precipitation Wind Pressure Humidity
    00:00 -4°C° 0 mm 1 mps 598 mmHg 85%
    01:00 -6°C° 0 mm 1 mps 598 mmHg 82%
    02:00 -4°C° 0 mm 1 mps 598 mmHg 79%
    03:00 -4°C° 0 mm 1 mps 598 mmHg 76%
    04:00 -4°C° 0 mm 1 mps 598 mmHg 73%
    05:00 -4°C° 0 mm 1 mps 598 mmHg 72%
    06:00 -4°C° 0 mm 1 mps 598 mmHg 70%
    07:00 -4°C° 0 mm 1 mps 599 mmHg 69%
    08:00 -3°C° 0 mm 1 mps 599 mmHg 71%
    09:00 -1°C° 0 mm 1 mps 600 mmHg 74%
    10:00 +1°C° 0 mm 1 mps 601 mmHg 76%
    11:00 +1°C° 0 mm 1 mps 601 mmHg 78%
    12:00 +2°C° 0 mm 1 mps 601 mmHg 80%
    13:00 +3°C° 0 mm 1 mps 601 mmHg 82%
    14:00 +2°C° 0 mm 1 mps 601 mmHg 83%
    15:00 +2°C° 0 mm 1 mps 601 mmHg 85%
    16:00 +2°C° 0 mm 1 mps 601 mmHg 86%
    17:00 0°C° 0 mm 1 mps 600 mmHg 87%
    18:00 -1°C° 0 mm 1 mps 600 mmHg 88%
    19:00 -2°C° 0 mm 1 mps 600 mmHg 89%
    20:00 -5°C° 0 mm 2 mps 600 mmHg 87%
    21:00 -5°C° 0 mm 2 mps 601 mmHg 86%
    22:00 -5°C° 0 mm 2 mps 601 mmHg 84%
    23:00 -5°C° 0 mm 2 mps 601 mmHg 83%

    22 February, Friday

    Time Temperature Precipitation Wind Pressure Humidity
    00:00 -6°C° 0 mm 2 mps 601 mmHg 81%
    01:00 -6°C° 0 mm 2 mps 601 mmHg 80%
    02:00 -6°C° 0 mm 2 mps 601 mmHg 80%
    03:00 -6°C° 0 mm 2 mps 601 mmHg 80%
    04:00 -6°C° 0 mm 2 mps 600 mmHg 80%
    05:00 -6°C° 0 mm 2 mps 601 mmHg 79%
    06:00 -6°C° 0 mm 2 mps 601 mmHg 79%
    07:00 -7°C° 0 mm 2 mps 601 mmHg 79%
    08:00 -5°C° 0 mm 2 mps 601 mmHg 80%
    09:00 -4°C° 0 mm 2 mps 602 mmHg 81%
    10:00 -2°C° 0 mm 2 mps 603 mmHg 81%
    11:00 -2°C° 0 mm 2 mps 603 mmHg 81%
    12:00 -1°C° 0 mm 2 mps 603 mmHg 81%
    13:00 -1°C° 0 mm 2 mps 603 mmHg 81%
    14:00 -1°C° 0 mm 2 mps 603 mmHg 82%
    15:00 -1°C° 0 mm 2 mps 602 mmHg 84%
    16:00 -2°C° 0 mm 2 mps 602 mmHg 86%
    17:00 -3°C° 0 mm 2 mps 602 mmHg 89%
    18:00 -4°C° 0 mm 2 mps 602 mmHg 92%
    19:00 -3°C° 0 mm 1 mps 601 mmHg 95%
    20:00 -4°C° 0 mm 1 mps 602 mmHg 94%
    21:00 -4°C° 0 mm 1 mps 602 mmHg 93%
    22:00 -4°C° 0 mm 1 mps 602 mmHg 92%
    23:00 -4°C° 0 mm 1 mps 602 mmHg 89%

    23 February, Saturday

    Time Temperature Precipitation Wind Pressure Humidity
    00:00 -4°C° 0 mm 1 mps 602 mmHg 85%
    01:00 -4°C° 0 mm 1 mps 602 mmHg 82%
    02:00 -4°C° 0 mm 1 mps 602 mmHg 76%
    03:00 -4°C° 0 mm 1 mps 601 mmHg 71%
    04:00 -4°C° 0 mm 1 mps 601 mmHg 65%
    05:00 -4°C° 0 mm 1 mps 601 mmHg 60%
    06:00 -4°C° 0 mm 1 mps 601 mmHg 55%
    07:00 -4°C° 0 mm 1 mps 601 mmHg 50%
    08:00 -2°C° 0 mm 1 mps 602 mmHg 51%
    09:00 0°C° 0 mm 1 mps 603 mmHg 52%
    10:00 +1°C° 0 mm 1 mps 604 mmHg 53%
    11:00 +2°C° 0 mm 1 mps 604 mmHg 52%
    12:00 +3°C° 0 mm 1 mps 604 mmHg 51%
    13:00 +4°C° 0 mm 1 mps 604 mmHg 50%
    14:00 +4°C° 0 mm 1 mps 603 mmHg 54%
    15:00 +3°C° 0 mm 1 mps 603 mmHg 58%
    16:00 +2°C° 0 mm 2 mps 603 mmHg 62%
    17:00 -1°C° 0 mm 2 mps 602 mmHg 61%
    18:00 0°C° 0 mm 1 mps 602 mmHg 60%
    19:00 -2°C° 0 mm 1 mps 602 mmHg 59%
    20:00 -2°C° 0 mm 1 mps 602 mmHg 56%
    21:00 -2°C° 0 mm 1 mps 602 mmHg 53%
    22:00 -2°C° 0 mm 1 mps 602 mmHg 50%
    23:00 -2°C° 0 mm 1 mps 602 mmHg 49%

    24 February, Sunday

    Time Temperature Precipitation Wind Pressure Humidity
    00:00 -2°C° 0 mm 1 mps 602 mmHg 49%
    01:00 -2°C° 0 mm 1 mps 601 mmHg 49%
    02:00 -2°C° 0 mm 1 mps 601 mmHg 50%
    03:00 -2°C° 0 mm 1 mps 601 mmHg 51%
    04:00 -2°C° 0 mm 1 mps 601 mmHg 52%
    05:00 -2°C° 0 mm 1 mps 601 mmHg 52%
    06:00 -3°C° 0 mm 1 mps 601 mmHg 53%
    07:00 -3°C° 0 mm 1 mps 601 mmHg 54%
    08:00 -1°C° 0 mm 1 mps 602 mmHg 55%
    09:00 0°C° 0 mm 1 mps 602 mmHg 56%
    10:00 +1°C° 0 mm 2 mps 603 mmHg 57%
    11:00 +2°C° 0 mm 2 mps 603 mmHg 57%
    12:00 +2°C° 0 mm 2 mps 603 mmHg 57%
    13:00 +3°C° 0 mm 2 mps 603 mmHg 57%
    14:00 +2°C° 0 mm 2 mps 603 mmHg 60%
    15:00 +2°C° 0 mm 2 mps 603 mmHg 64%
    16:00 +1°C° 0 mm 2 mps 602 mmHg 67%
    17:00 +1°C° 0 mm 1 mps 602 mmHg 67%
    18:00 0°C° 0 mm 1 mps 602 mmHg 67%
    19:00 -2°C° 0 mm 1 mps 602 mmHg 67%
    20:00 -2°C° 0 mm 1 mps 602 mmHg 61%
    21:00 -2°C° 0 mm 1 mps 602 mmHg 55%
    22:00 -2°C° 0 mm 1 mps 602 mmHg 49%
    23:00 -2°C° 0 mm 1 mps 602 mmHg 45%
    Show more